SCP
0 0 0 0 0 0 0 -0 -0 0 0 -0 0 0 0 0 0 0 0 -0 0 0 0 0 -0 -0 -0 0 -0 0 0 -0 -0 -0 -0 -0 -0 -0 -0 -0 -0 -0 -0 -0 -0 -0 -0 -0 -0
0 0 0 0 0 0 0 -0 0 0 0 0 0 0 0 0 0 0 0 -0 0 0 0 0 0 -0 -0 0 -0 0 -0 -0 -0 -0 -0 -0 -0 -0 -0 -0 -0 -0 -0 -0 -0 -0 -0 -0 -0
0 0 0 0 0 0 0 -0 0 0 0 0 0 0 0 0 0 0 0 -0 0 0 0 0 0 0 0 0 0 0 0 -0 -0 -0 -0 -0 -0 -0 -0 -0 -0 -0 -0 -0 -0 -0 -0 -0 -0
0 0 0 0 0 0 0 0 0 0 0 0 0 0 0 0 0 0 0 0 0 0 0 0 0 0 0 0 0 0 0 0 0 0 -0 0 -0 -0 -0 -0 -0 -0 -0 -0 -0 -0 -0 -0 -0
0 0 0 0 0 0 0 0 0 0 0 0 0 -0 0 0 0 0 0 0 0 0 0 0 0 0 0 0 0 0 0 0 0 0 -0 0 -0 -0 -0 -0 -0 -0 -0 -0 -0 -0 -0 -0 -0
0 0 0 0 0 0 0 0 0 0 0 0 0 0 0 0 0 0 0 -0 0 0 0 0 0 0 0 0 0 -0 -0 -0 -0 -0 -0 -0 -0 -0 -0 -0 -0 -0 -0 -0 -0 -0 -0 -0 -0
0 0 0 0 0 0 0 0 0 0 0 0 0 0 0 0 0 0 0 0 -0 0 0 0 0 0 0 0 0 0 -0 -0 -0 -0 -0 -0 -0 -0 -0 -0 -0 -0 -0 -0 -0 -0 -0 -0 -0
0 0 0 0 0 0 0 0 0 0 0 0 0 0 0 -0 0 0 0 0 -0 -0 -0 -0 -0 0 0 0 0 0 0 -0 -0 -0 -0 -0 -0 -0 -0 -0 -0 -0 -0 -0 -0 -0 -0 0 0
0 0 0 0 0 0 0 0 0 0 0 0 0 0 0 0 0 0 0 0 0 -0 -0 -0 -0 0 0 0 0 0 0 0 0 0 -0 0 0 0 0 0 -0 -0 -0 0 0 0 0 0 0
0 0 0 0 0 0 0 0 0 0 0 0 0 0 0 0 0 0 0 0 -0 -0 -0 0 -0 -0 0 0 0 0 0 0 0 0 0 0 0 0 0 0 0 0 0 0 0 0 0 0 0
0 0 0 0 0 0 0 0 0 0 0 0 0 0 0 0 0 0 0 0 0 0 -0 0 -0 0 0 0 0 0 0 0 0 0 0 0 0 0 0 0 0 0 0 0 0 0 0 0 0
0 0 0 0 0 0 0 0 0 0 0 0 0 0 0 0 0 0 0 -0 -0 -0 -0 -0 -0 -0 -0 0 -0 -0 0 0 0 -0 -0 0 0 0 0 0 0 0 0 0 0 0 0 0 0
0 0 0 0 0 0 0 0 0 0 0 0 0 0 0 0 0 0 0 0 -0 -0 -0 -0 -0 -0 -0 -0 -0 -0 -0 -0 -0 -0 -0 -0 0 0 0 0 0 0 0 0 0 0 0 0 0
0 0 0 0 0 0 0 0 0 0 0 0 0 0 0 0 0 0 0 0 -0 0 0 -0 -0 -0 -0 -0 -0 -0 -0 -0 0 0 0 0 0 0 0 0 0 0 0 0 0 0 0 0 0
0 0 0 0 0 0 0 0 0 0 0 0 0 0 0 0 0 0 0 0 0 0 0 0 -0 0 -0 0 0 0 0 0 0 0 0 0 0 0 0 0 0 0 0 0 0 0 0 0 0
0 0 0 0 0 0 0 0 0 0 0 0 0 0 0 0 0 0 0 0 0 0 0 0 0 0 0 0 0 0 0 0 0 0 0 0 0 0 0 0 0 0 0 0 0 0 0 0 0
0 0 0 0 0 0 0 0 0 0 0 0 0 0 0 0 0 0 0 0 0 0 0 0 0 0 0 0 0 0 0 0 0 0 0 0 0 0 0 0 0 0 0 0 0 0 0 0 0
0 0 0 0 0 0 0 0 0 0 0 0 0 0 0 0 -0 0 0 0 0 0 0 0 0 0 0 0 0 0 0 0 0 0 0 0 0 0 0 0 0 0 0 0 0 0 0 0 0
0 0 0 0 0 0 0 0 0 0 0 0 0 0 0 0 0 0 0 0 0 0 0 0 0 0 0 0 0 0 0 0 0 0 0 0 0 0 0 0 0 0 0 0 0 0 0 0 0
0 0 0 0 0 0 0 0 0 0 0 0 0 0 0 0 0 0 0 0 0 0 0 0 0 0 0 0 0 0 0 0 0 0 0 0 0 0 0 0 0 0 0 0 0 0 0 0 0
0 0 0 0 0 0 0 0 0 0 0 0 0 0 0 0 0 0 0 0 0 0 0 0 0 0 0 0 0 0 0 0 0 0 0 0 0 0 0 0 0 0 0 0 0 0 0 0 0
0 0 0 0 0 0 0 0 0 0 0 0 0 0 0 0 0 0 0 0 0 0 0 0 0 0 0 0 0 0 0 0 0 0 0 0 0 0 0 0 0 0 0 0 0 0 0 0 0
0 0 0 0 0 0 0 0 -0 0 0 0 0 0 0 0 0 0 0 0 0 0 0 0 0 0 0 0 0 0 0 0 0 0 0 0 0 0 0 0 0 0 0 0 0 0 0 0 0
0 0 0 0 0 0 0 0 0 0 0 0 0 0 0 0 0 0 0 0 0 0 0 0 0 0 0 0 0 0 0 0 0 0 0 0 0 0 0 0 0 0 0 0 0 0 0 0 0
0 0 0 0 0 0 0 0 0 0 0 0 0 0 0 0 0 0 0 0 0 0 0 0 0 0 0 0 0 0 0 0 0 0 0 0 0 0 0 0 0 0 0 0 0 0 0 0 0
0 0 0 0 0 0 0 0 0 0 0 0 0 0 0 0 0 0 0 0 0 0 0 0 0 0 0 0 0 0 0 0 0 0 0 0 0 0 0 0 0 0 0 0 0 0 0 0 0
0 0 0 0 0 0 0 0 0 0 0 0 0 0 0 0 0 0 0 0 0 0 0 0 0 0 0 0 0 0 0 0 0 0 0 0 0 0 0 0 0 0 0 0 0 0 0 0 0
0 0 0 0 0 0 0 0 0 0 0 0 0 0 0 0 0 0 0 0 0 0 0 0 0 0 0 0 0 0 0 0 0 0 0 0 0 0 0 0 0 0 0 0 0 0 0 0 0
0 0 0 0 0 0 0 0 0 0 0 0 0 0 0 0 0 0 0 0 0 0 0 0 0 0 0 0 0 0 0 0 0 0 0 0 0 0 0 0 0 0 0 0 0 0 0 0 0
0 0 0 0 0 0 0 0 0 0 0 0 0 0 0 0 0 0 0 0 0 0 0 0 0 0 0 0 0 0 0 0 0 0 0 0 0 0 0 0 0 0 0 0 0 0 0 0 0
Wind_Speed_500mb
9 12 16 8 8 10 1 3 2 5 3 5 20 11 12 9 5 5 38 29 34 25 24 24 20 15 16 20 25 29 32 25 23 19 19 21 23 24 26 24 20 15 18 25 25 24 24 23 22
10 10 9 4 9 6 8 6 9 5 18 39 27 21 9 5 10 32 42 39 30 25 25 26 22 16 18 22 26 28 30 27 27 29 26 25 25 29 33 28 24 18 19 24 22 22 21 21 23
8 7 3 8 6 6 6 6 6 15 27 7 12 14 8 7 20 48 38 42 32 27 27 28 23 19 21 24 28 27 25 22 26 28 29 29 27 25 26 29 30 25 23 24 23 26 24 25 29
6 2 9 8 2 6 9 5 9 18 5 5 22 15 10 10 45 28 43 41 32 27 28 29 23 20 22 24 26 27 24 22 26 27 26 26 25 23 22 22 21 23 25 25 20 25 25 28 26
4 3 7 6 6 5 7 13 22 7 10 15 6 9 13 38 23 35 43 41 30 28 29 29 24 20 21 23 24 24 24 24 25 25 25 23 23 22 20 20 20 19 20 17 19 19 21 20 23
4 4 7 5 6 5 5 20 10 3 8 19 18 18 18 23 24 39 41 41 31 25 28 30 26 21 20 20 20 21 22 23 23 23 24 23 23 22 22 20 18 19 20 17 19 18 17 19 21
6 6 7 7 4 7 6 17 8 10 8 7 32 11 16 30 31 38 39 39 33 28 28 30 27 25 22 19 18 17 18 19 19 19 21 21 21 21 21 20 18 17 17 17 18 16 14 15 17
19 5 7 5 5 6 10 17 6 17 8 20 18 12 14 44 40 41 41 40 34 31 28 31 29 25 24 21 18 15 15 15 15 15 16 17 16 17 17 17 17 16 15 15 13 11 11 12 14
13 6 6 12 11 7 12 10 9 13 20 18 16 11 16 50 49 50 49 48 41 38 34 31 30 26 23 22 19 16 14 12 11 11 12 13 13 14 14 14 14 13 12 11 9 7 8 10 12
7 5 13 13 10 6 12 11 24 14 22 14 19 18 30 55 58 59 58 55 52 47 41 34 33 29 25 22 19 16 13 10 8 6 7 9 11 12 12 11 12 11 10 9 6 5 6 8 9
8 8 9 7 10 8 8 14 22 17 6 25 38 34 44 60 64 62 57 53 52 46 43 38 33 31 28 23 20 18 15 12 8 6 4 5 6 9 10 10 8 8 8 7 4 2 4 5 5
7 22 14 7 7 7 8 9 16 30 16 37 32 38 51 64 67 67 62 57 54 49 44 41 38 34 30 27 23 20 19 16 12 9 6 3 3 4 6 7 5 4 4 4 4 1 3 3 4
6 4 16 23 12 15 12 24 14 36 24 22 34 43 53 61 62 62 58 53 50 49 44 43 40 37 35 32 29 27 23 20 18 16 14 10 7 4 1 2 2 1 1 2 4 4 4 3 3
2 18 11 15 18 10 9 7 14 21 27 21 37 47 55 60 59 61 62 56 53 47 44 41 43 40 39 36 34 31 30 27 26 24 20 18 15 13 9 6 4 3 4 4 5 6 6 6 6
2 4 16 12 7 8 10 7 17 18 37 28 44 50 56 60 58 58 58 56 53 49 44 44 41 41 41 39 39 37 35 35 33 29 28 25 23 20 17 14 12 11 11 10 9 9 9 9 10
12 12 6 3 8 5 15 15 24 25 33 37 49 53 58 60 58 52 57 55 52 51 49 45 43 43 42 40 39 36 38 38 37 36 34 31 32 26 24 21 19 20 19 17 15 14 14 14 14
9 9 8 8 5 0 5 9 14 25 33 38 53 58 59 58 61 57 54 55 52 50 49 48 46 44 41 39 39 37 33 35 39 39 35 32 28 27 27 26 23 26 25 23 21 20 19 18 19
12 10 7 9 5 2 7 14 15 18 38 51 49 55 61 62 63 57 55 55 56 54 50 49 46 44 40 37 36 39 39 39 37 38 37 36 36 33 33 31 29 28 28 26 25 22 23 24 26
9 8 9 6 3 6 12 15 25 19 25 32 44 55 64 63 58 58 54 53 57 60 57 57 52 50 48 50 49 48 49 46 45 45 44 42 40 38 38 36 34 33 32 28 25 25 23 23 24
5 7 10 8 7 1 5 19 23 15 19 45 59 58 63 63 64 62 57 56 58 60 59 61 57 54 55 56 53 50 47 47 44 41 34 46 48 46 45 45 43 40 36 33 33 31 30 31 31
6 8 8 4 4 3 11 13 18 8 31 45 46 62 63 60 67 63 56 59 59 64 63 65 60 56 55 56 59 58 54 54 54 52 45 39 40 52 51 50 47 44 42 39 36 37 37 38 40
11 9 6 10 7 8 2 16 18 12 19 21 61 51 65 67 69 64 58 59 62 65 64 66 65 60 60 60 60 59 54 56 51 47 36 28 33 36 46 46 47 45 45 44 41 40 45 44 47
7 8 6 7 7 7 7 7 12 4 19 17 44 65 66 73 77 72 67 60 54 61 64 63 68 66 65 66 63 60 60 53 48 45 41 34 31 37 37 40 43 46 45 45 44 45 45 43 42
17 9 11 9 7 9 34 12 10 16 21 14 31 71 75 82 81 75 66 61 58 58 64 61 63 66 65 68 69 66 66 62 61 56 46 42 41 39 39 36 42 47 45 42 42 41 41 42 42
16 22 4 4 8 17 5 12 38 13 15 14 24 47 55 68 80 88 80 75 64 62 62 62 62 62 63 67 67 67 69 65 62 58 51 44 46 41 38 38 39 38 38 38 38 38 38 38 36
30 27 11 14 9 6 7 15 14 21 33 39 39 38 32 40 48 61 73 72 65 63 62 62 61 60 61 61 63 65 67 64 60 54 47 48 42 35 32 33 34 32 32 30 29 30 29 28 31
12 33 17 9 5 4 10 14 19 17 20 30 45 40 46 32 33 41 53 59 59 58 57 59 59 57 57 59 61 65 66 61 53 49 48 50 45 38 35 35 36 34 32 33 32 25 28 27 32
22 20 12 2 6 8 8 10 12 3 20 24 22 53 50 40 34 39 47 49 50 49 48 49 51 53 56 58 57 55 50 47 47 50 46 47 41 40 37 32 31 33 34 36 27 24 25 24 21
8 15 6 7 8 9 2 12 15 23 9 14 21 29 33 39 39 41 41 41 41 43 45 46 46 46 44 41 37 35 33 38 43 43 43 40 39 34 34 33 29 29 25 20 24 26 25 27 21
4 15 24 16 25 4 5 15 7 14 6 9 21 26 29 31 37 36 37 38 38 38 40 40 37 35 33 32 30 29 28 32 38 44 45 40 37 28 26 28 29 30 29 26 25 24 19 16 15
Wind_Direction_500mb
299 325 338 331 51 67 347 231 79 136 121 134 134 140 157 77 137 183 140 149 154 152 142 139 133 113 97 99 96 99 95 92 97 111 125 137 130 114 98 93 100 121 106 105 102 95 87 80 73
292 316 335 33 81 62 285 277 156 208 130 111 99 103 73 69 98 137 141 145 151 151 143 138 132 120 108 107 99 103 103 105 96 98 110 118 126 133 117 108 108 99 115 108 101 90 83 76 65
285 315 16 84 105 145 221 239 159 129 144 123 117 84 86 121 135 142 145 149 153 155 149 138 133 126 117 110 104 106 103 96 90 91 94 101 104 109 119 121 122 116 102 97 101 90 82 78 68
296 247 64 78 190 234 187 196 154 146 168 118 126 73 81 139 140 147 148 151 155 160 151 142 139 132 126 115 109 105 103 93 84 87 88 90 92 96 101 106 105 109 105 99 94 94 85 83 62
259 65 63 90 266 268 261 154 164 180 147 138 142 130 102 137 145 151 152 154 160 165 156 147 146 140 131 125 113 106 100 93 87 85 86 93 90 88 88 91 97 105 111 106 98 94 86 68 56
78 62 70 192 254 285 284 162 171 177 171 140 115 112 146 167 164 157 157 159 163 171 161 155 155 150 141 137 123 111 103 98 93 90 88 91 90 87 86 89 99 104 110 103 103 93 77 59 52
106 86 190 169 245 349 183 171 178 155 170 186 146 111 158 169 163 165 164 167 170 176 171 164 162 159 155 148 140 120 112 104 95 88 86 87 87 84 83 82 87 92 98 99 101 94 81 66 58
195 99 129 213 177 254 178 170 196 172 189 154 168 168 183 172 167 169 172 172 178 179 182 175 169 166 166 162 154 144 130 117 103 93 88 89 88 86 90 91 95 106 107 110 107 94 73 60 55
136 89 188 194 158 234 168 162 165 179 156 169 201 181 173 169 170 173 175 178 185 186 187 184 179 176 176 174 170 164 157 139 117 100 94 95 93 91 99 104 108 112 116 116 107 84 53 39 37
109 137 213 208 187 192 188 186 170 165 173 204 203 198 173 175 176 181 182 185 185 190 190 189 186 186 186 186 186 182 176 164 145 118 102 102 96 90 100 112 119 121 128 128 111 68 24 13 20
138 217 203 247 197 199 204 210 182 158 218 206 199 193 178 180 182 188 189 192 191 190 196 193 194 193 197 196 197 197 196 200 193 170 139 117 99 82 83 100 113 122 132 144 140 87 6 359 4
172 229 207 193 216 157 198 199 197 191 215 221 215 208 185 188 191 192 194 194 195 197 200 200 199 200 203 206 208 211 212 214 217 216 212 193 155 102 84 90 104 122 146 165 183 232 337 336 337
188 255 231 232 263 284 208 207 205 217 216 213 203 200 196 197 199 199 200 199 200 202 203 206 209 208 209 214 216 220 223 225 226 231 232 233 231 223 193 77 81 108 174 218 224 250 288 300 306
283 244 286 264 248 237 220 197 174 234 209 207 201 202 201 203 202 204 205 204 205 204 210 210 214 217 219 222 226 228 231 231 233 238 239 239 241 242 239 245 259 280 276 272 266 279 292 294 296
205 61 313 256 229 225 191 252 208 212 204 206 200 204 203 207 208 210 211 208 209 206 208 215 218 221 225 229 232 233 236 237 239 242 245 245 245 249 252 252 254 260 266 272 279 282 290 299 305
152 116 227 299 182 240 144 278 261 201 200 205 204 203 208 211 217 216 217 218 214 213 211 214 218 224 228 229 233 238 240 242 243 242 246 249 252 249 254 255 258 262 263 266 273 280 287 295 301
350 153 175 295 191 196 139 253 281 216 203 213 212 208 210 218 224 224 224 224 222 221 219 220 220 224 230 233 233 237 242 248 250 242 242 253 247 254 257 263 263 264 269 271 274 277 284 292 299
169 154 176 206 194 187 197 254 275 252 211 216 218 216 215 220 225 227 229 228 230 230 229 229 229 229 226 231 235 237 239 243 242 242 241 242 246 252 259 265 268 268 267 271 278 285 291 295 295
161 164 170 196 181 207 229 225 242 255 247 236 223 222 223 226 231 229 229 232 234 234 233 232 229 231 232 233 234 235 235 239 244 244 245 247 249 253 256 261 266 271 274 278 283 286 291 296 299
149 194 226 302 35 185 298 254 255 197 241 236 229 228 230 234 237 235 233 231 229 234 232 233 232 232 235 239 243 244 247 248 252 261 251 252 253 254 257 260 262 265 269 272 276 279 285 287 288
173 147 150 205 122 337 333 270 263 236 232 246 244 237 239 237 240 240 239 238 234 231 232 234 233 234 239 242 243 243 246 247 247 248 248 254 254 254 255 259 263 265 267 267 270 273 278 284 285
188 185 128 96 73 214 243 266 245 243 242 228 241 235 235 236 238 241 240 241 240 238 234 234 236 235 239 241 241 240 246 250 251 254 265 267 264 253 258 258 261 263 263 267 269 270 270 271 274
165 141 86 82 107 20 236 273 259 211 242 234 241 242 238 239 238 239 240 240 243 238 236 236 235 236 237 240 242 243 245 250 253 254 257 263 259 256 255 257 258 259 260 263 265 268 271 276 280
148 89 58 47 54 256 238 210 237 211 229 244 235 241 241 242 241 238 234 235 238 235 232 232 235 235 234 235 241 244 247 249 251 251 252 259 264 265 263 261 258 258 256 259 266 270 271 273 271
153 129 109 200 207 237 102 173 243 253 245 231 233 241 251 251 249 244 234 234 232 229 228 229 232 232 233 236 241 245 249 250 249 249 249 251 256 262 261 260 255 254 255 257 262 267 272 270 269
184 173 168 178 204 214 131 230 247 224 257 245 247 252 256 260 254 242 230 226 225 226 224 226 226 227 231 236 242 247 249 250 248 247 237 239 245 251 250 246 250 253 254 255 262 263 264 264 269
161 214 180 104 21 50 202 282 305 234 255 252 252 250 248 255 250 233 219 217 217 220 223 224 225 228 234 241 246 249 251 247 242 237 227 235 236 245 250 248 249 249 249 249 252 251 255 247 264
187 165 177 152 166 243 264 281 230 287 227 231 233 234 243 235 224 210 208 210 213 217 221 225 229 235 240 245 248 247 244 237 227 224 222 226 230 241 244 241 245 250 256 242 253 253 261 254 258
136 196 210 170 169 187 255 255 221 218 231 287 286 270 253 234 215 205 202 204 209 215 223 229 234 238 239 237 234 231 224 217 213 213 214 218 226 231 238 242 237 236 237 234 257 254 250 260 269
188 184 191 204 219 225 181 261 192 239 273 306 304 292 252 225 212 207 208 212 217 221 225 226 224 223 221 219 216 214 208 205 204 207 205 212 219 222 224 230 228 234 239 236 236 242 245 252 260
Wind_Speed_850mb
9 12 16 8 8 10 1 3 2 5 3 5 20 11 12 9 5 5 38 29 34 25 24 24 20 15 16 20 25 29 32 25 23 19 19 21 23 24 26 24 20 15 18 25 25 24 24 23 22
10 10 9 4 9 6 8 6 9 5 18 39 27 21 9 5 10 32 42 39 30 25 25 26 22 16 18 22 26 28 30 27 27 29 26 25 25 29 33 28 24 18 19 24 22 22 21 21 23
8 7 3 8 6 6 6 6 6 15 27 7 12 14 8 7 20 48 38 42 32 27 27 28 23 19 21 24 28 27 25 22 26 28 29 29 27 25 26 29 30 25 23 24 23 26 24 25 29
6 2 9 8 2 6 9 5 9 18 5 5 22 15 10 10 45 28 43 41 32 27 28 29 23 20 22 24 26 27 24 22 26 27 26 26 25 23 22 22 21 23 25 25 20 25 25 28 26
4 3 7 6 6 5 7 13 22 7 10 15 6 9 13 38 23 35 43 41 30 28 29 29 24 20 21 23 24 24 24 24 25 25 25 23 23 22 20 20 20 19 20 17 19 19 21 20 23
4 4 7 5 6 5 5 20 10 3 8 19 18 18 18 23 24 39 41 41 31 25 28 30 26 21 20 20 20 21 22 23 23 23 24 23 23 22 22 20 18 19 20 17 19 18 17 19 21
6 6 7 7 4 7 6 17 8 10 8 7 32 11 16 30 31 38 39 39 33 28 28 30 27 25 22 19 18 17 18 19 19 19 21 21 21 21 21 20 18 17 17 17 18 16 14 15 17
19 5 7 5 5 6 10 17 6 17 8 20 18 12 14 44 40 41 41 40 34 31 28 31 29 25 24 21 18 15 15 15 15 15 16 17 16 17 17 17 17 16 15 15 13 11 11 12 14
13 6 6 12 11 7 12 10 9 13 20 18 16 11 16 50 49 50 49 48 41 38 34 31 30 26 23 22 19 16 14 12 11 11 12 13 13 14 14 14 14 13 12 11 9 7 8 10 12
7 5 13 13 10 6 12 11 24 14 22 14 19 18 30 55 58 59 58 55 52 47 41 34 33 29 25 22 19 16 13 10 8 6 7 9 11 12 12 11 12 11 10 9 6 5 6 8 9
8 8 9 7 10 8 8 14 22 17 6 25 38 34 44 60 64 62 57 53 52 46 43 38 33 31 28 23 20 18 15 12 8 6 4 5 6 9 10 10 8 8 8 7 4 2 4 5 5
7 22 14 7 7 7 8 9 16 30 16 37 32 38 51 64 67 67 62 57 54 49 44 41 38 34 30 27 23 20 19 16 12 9 6 3 3 4 6 7 5 4 4 4 4 1 3 3 4
6 4 16 23 12 15 12 24 14 36 24 22 34 43 53 61 62 62 58 53 50 49 44 43 40 37 35 32 29 27 23 20 18 16 14 10 7 4 1 2 2 1 1 2 4 4 4 3 3
2 18 11 15 18 10 9 7 14 21 27 21 37 47 55 60 59 61 62 56 53 47 44 41 43 40 39 36 34 31 30 27 26 24 20 18 15 13 9 6 4 3 4 4 5 6 6 6 6
2 4 16 12 7 8 10 7 17 18 37 28 44 50 56 60 58 58 58 56 53 49 44 44 41 41 41 39 39 37 35 35 33 29 28 25 23 20 17 14 12 11 11 10 9 9 9 9 10
12 12 6 3 8 5 15 15 24 25 33 37 49 53 58 60 58 52 57 55 52 51 49 45 43 43 42 40 39 36 38 38 37 36 34 31 32 26 24 21 19 20 19 17 15 14 14 14 14
9 9 8 8 5 0 5 9 14 25 33 38 53 58 59 58 61 57 54 55 52 50 49 48 46 44 41 39 39 37 33 35 39 39 35 32 28 27 27 26 23 26 25 23 21 20 19 18 19
12 10 7 9 5 2 7 14 15 18 38 51 49 55 61 62 63 57 55 55 56 54 50 49 46 44 40 37 36 39 39 39 37 38 37 36 36 33 33 31 29 28 28 26 25 22 23 24 26
9 8 9 6 3 6 12 15 25 19 25 32 44 55 64 63 58 58 54 53 57 60 57 57 52 50 48 50 49 48 49 46 45 45 44 42 40 38 38 36 34 33 32 28 25 25 23 23 24
5 7 10 8 7 1 5 19 23 15 19 45 59 58 63 63 64 62 57 56 58 60 59 61 57 54 55 56 53 50 47 47 44 41 34 46 48 46 45 45 43 40 36 33 33 31 30 31 31
6 8 8 4 4 3 11 13 18 8 31 45 46 62 63 60 67 63 56 59 59 64 63 65 60 56 55 56 59 58 54 54 54 52 45 39 40 52 51 50 47 44 42 39 36 37 37 38 40
11 9 6 10 7 8 2 16 18 12 19 21 61 51 65 67 69 64 58 59 62 65 64 66 65 60 60 60 60 59 54 56 51 47 36 28 33 36 46 46 47 45 45 44 41 40 45 44 47
7 8 6 7 7 7 7 7 12 4 19 17 44 65 66 73 77 72 67 60 54 61 64 63 68 66 65 66 63 60 60 53 48 45 41 34 31 37 37 40 43 46 45 45 44 45 45 43 42
17 9 11 9 7 9 34 12 10 16 21 14 31 71 75 82 81 75 66 61 58 58 64 61 63 66 65 68 69 66 66 62 61 56 46 42 41 39 39 36 42 47 45 42 42 41 41 42 42
16 22 4 4 8 17 5 12 38 13 15 14 24 47 55 68 80 88 80 75 64 62 62 62 62 62 63 67 67 67 69 65 62 58 51 44 46 41 38 38 39 38 38 38 38 38 38 38 36
30 27 11 14 9 6 7 15 14 21 33 39 39 38 32 40 48 61 73 72 65 63 62 62 61 60 61 61 63 65 67 64 60 54 47 48 42 35 32 33 34 32 32 30 29 30 29 28 31
12 33 17 9 5 4 10 14 19 17 20 30 45 40 46 32 33 41 53 59 59 58 57 59 59 57 57 59 61 65 66 61 53 49 48 50 45 38 35 35 36 34 32 33 32 25 28 27 32
22 20 12 2 6 8 8 10 12 3 20 24 22 53 50 40 34 39 47 49 50 49 48 49 51 53 56 58 57 55 50 47 47 50 46 47 41 40 37 32 31 33 34 36 27 24 25 24 21
8 15 6 7 8 9 2 12 15 23 9 14 21 29 33 39 39 41 41 41 41 43 45 46 46 46 44 41 37 35 33 38 43 43 43 40 39 34 34 33 29 29 25 20 24 26 25 27 21
4 15 24 16 25 4 5 15 7 14 6 9 21 26 29 31 37 36 37 38 38 38 40 40 37 35 33 32 30 29 28 32 38 44 45 40 37 28 26 28 29 30 29 26 25 24 19 16 15
Wind_Direction_850mb
299 325 338 331 51 67 347 231 79 136 121 134 134 140 157 77 137 183 140 149 154 152 142 139 133 113 97 99 96 99 95 92 97 111 125 137 130 114 98 93 100 121 106 105 102 95 87 80 73
292 316 335 33 81 62 285 277 156 208 130 111 99 103 73 69 98 137 141 145 151 151 143 138 132 120 108 107 99 103 103 105 96 98 110 118 126 133 117 108 108 99 115 108 101 90 83 76 65
285 315 16 84 105 145 221 239 159 129 144 123 117 84 86 121 135 142 145 149 153 155 149 138 133 126 117 110 104 106 103 96 90 91 94 101 104 109 119 121 122 116 102 97 101 90 82 78 68
296 247 64 78 190 234 187 196 154 146 168 118 126 73 81 139 140 147 148 151 155 160 151 142 139 132 126 115 109 105 103 93 84 87 88 90 92 96 101 106 105 109 105 99 94 94 85 83 62
259 65 63 90 266 268 261 154 164 180 147 138 142 130 102 137 145 151 152 154 160 165 156 147 146 140 131 125 113 106 100 93 87 85 86 93 90 88 88 91 97 105 111 106 98 94 86 68 56
78 62 70 192 254 285 284 162 171 177 171 140 115 112 146 167 164 157 157 159 163 171 161 155 155 150 141 137 123 111 103 98 93 90 88 91 90 87 86 89 99 104 110 103 103 93 77 59 52
106 86 190 169 245 349 183 171 178 155 170 186 146 111 158 169 163 165 164 167 170 176 171 164 162 159 155 148 140 120 112 104 95 88 86 87 87 84 83 82 87 92 98 99 101 94 81 66 58
195 99 129 213 177 254 178 170 196 172 189 154 168 168 183 172 167 169 172 172 178 179 182 175 169 166 166 162 154 144 130 117 103 93 88 89 88 86 90 91 95 106 107 110 107 94 73 60 55
136 89 188 194 158 234 168 162 165 179 156 169 201 181 173 169 170 173 175 178 185 186 187 184 179 176 176 174 170 164 157 139 117 100 94 95 93 91 99 104 108 112 116 116 107 84 53 39 37
109 137 213 208 187 192 188 186 170 165 173 204 203 198 173 175 176 181 182 185 185 190 190 189 186 186 186 186 186 182 176 164 145 118 102 102 96 90 100 112 119 121 128 128 111 68 24 13 20
138 217 203 247 197 199 204 210 182 158 218 206 199 193 178 180 182 188 189 192 191 190 196 193 194 193 197 196 197 197 196 200 193 170 139 117 99 82 83 100 113 122 132 144 140 87 6 359 4
172 229 207 193 216 157 198 199 197 191 215 221 215 208 185 188 191 192 194 194 195 197 200 200 199 200 203 206 208 211 212 214 217 216 212 193 155 102 84 90 104 122 146 165 183 232 337 336 337
188 255 231 232 263 284 208 207 205 217 216 213 203 200 196 197 199 199 200 199 200 202 203 206 209 208 209 214 216 220 223 225 226 231 232 233 231 223 193 77 81 108 174 218 224 250 288 300 306
283 244 286 264 248 237 220 197 174 234 209 207 201 202 201 203 202 204 205 204 205 204 210 210 214 217 219 222 226 228 231 231 233 238 239 239 241 242 239 245 259 280 276 272 266 279 292 294 296
205 61 313 256 229 225 191 252 208 212 204 206 200 204 203 207 208 210 211 208 209 206 208 215 218 221 225 229 232 233 236 237 239 242 245 245 245 249 252 252 254 260 266 272 279 282 290 299 305
152 116 227 299 182 240 144 278 261 201 200 205 204 203 208 211 217 216 217 218 214 213 211 214 218 224 228 229 233 238 240 242 243 242 246 249 252 249 254 255 258 262 263 266 273 280 287 295 301
350 153 175 295 191 196 139 253 281 216 203 213 212 208 210 218 224 224 224 224 222 221 219 220 220 224 230 233 233 237 242 248 250 242 242 253 247 254 257 263 263 264 269 271 274 277 284 292 299
169 154 176 206 194 187 197 254 275 252 211 216 218 216 215 220 225 227 229 228 230 230 229 229 229 229 226 231 235 237 239 243 242 242 241 242 246 252 259 265 268 268 267 271 278 285 291 295 295
161 164 170 196 181 207 229 225 242 255 247 236 223 222 223 226 231 229 229 232 234 234 233 232 229 231 232 233 234 235 235 239 244 244 245 247 249 253 256 261 266 271 274 278 283 286 291 296 299
149 194 226 302 35 185 298 254 255 197 241 236 229 228 230 234 237 235 233 231 229 234 232 233 232 232 235 239 243 244 247 248 252 261 251 252 253 254 257 260 262 265 269 272 276 279 285 287 288
173 147 150 205 122 337 333 270 263 236 232 246 244 237 239 237 240 240 239 238 234 231 232 234 233 234 239 242 243 243 246 247 247 248 248 254 254 254 255 259 263 265 267 267 270 273 278 284 285
188 185 128 96 73 214 243 266 245 243 242 228 241 235 235 236 238 241 240 241 240 238 234 234 236 235 239 241 241 240 246 250 251 254 265 267 264 253 258 258 261 263 263 267 269 270 270 271 274
165 141 86 82 107 20 236 273 259 211 242 234 241 242 238 239 238 239 240 240 243 238 236 236 235 236 237 240 242 243 245 250 253 254 257 263 259 256 255 257 258 259 260 263 265 268 271 276 280
148 89 58 47 54 256 238 210 237 211 229 244 235 241 241 242 241 238 234 235 238 235 232 232 235 235 234 235 241 244 247 249 251 251 252 259 264 265 263 261 258 258 256 259 266 270 271 273 271
153 129 109 200 207 237 102 173 243 253 245 231 233 241 251 251 249 244 234 234 232 229 228 229 232 232 233 236 241 245 249 250 249 249 249 251 256 262 261 260 255 254 255 257 262 267 272 270 269
184 173 168 178 204 214 131 230 247 224 257 245 247 252 256 260 254 242 230 226 225 226 224 226 226 227 231 236 242 247 249 250 248 247 237 239 245 251 250 246 250 253 254 255 262 263 264 264 269
161 214 180 104 21 50 202 282 305 234 255 252 252 250 248 255 250 233 219 217 217 220 223 224 225 228 234 241 246 249 251 247 242 237 227 235 236 245 250 248 249 249 249 249 252 251 255 247 264
187 165 177 152 166 243 264 281 230 287 227 231 233 234 243 235 224 210 208 210 213 217 221 225 229 235 240 245 248 247 244 237 227 224 222 226 230 241 244 241 245 250 256 242 253 253 261 254 258
136 196 210 170 169 187 255 255 221 218 231 287 286 270 253 234 215 205 202 204 209 215 223 229 234 238 239 237 234 231 224 217 213 213 214 218 226 231 238 242 237 236 237 234 257 254 250 260 269
188 184 191 204 219 225 181 261 192 239 273 306 304 292 252 225 212 207 208 212 217 221 225 226 224 223 221 219 216 214 208 205 204 207 205 212 219 222 224 230 228 234 239 236 236 242 245 252 260